Location: Bun Machan
(52.1403°N, 7.3744°W)
Time: 02:58:58
(UTC+00:00)

Cosmos 676 Rocket - Pass Details

Date: 14 July 2020
Orbit: 753 x 785 km, 74.0° (Epoch: 04 August)

Event Time Altitude Azimuth Distance (km) Brightness Sun altitude
Exits shadow 02:56:57 12° 197° (SSW) 2,179 5.7 -10.0°
Maximum altitude 03:01:51 77° 113° (ESE) 800 4.1 -9.6°
Drops below altitude 10° 03:07:11 10° 27° (NNE) 2,343 8.1 -9.2°
Sets 03:09:35 0° 27° (NNE) 3,279 9.4 -8.9°
